When you browse on this site, cookies collect data to enhance your experience and personalize the content and advertising you see.
Visit our Privacy Policy to learn more. By continuing to use the site, you agree to this use of cookies and data.
  • en France
  • Liste des pays
  • À 7 jours
  • Température de l'eau
  • Carte satellitaire
  • Carte météo
  • Widgets météo
  • user-avatar
    Se connecter

    Météo par heure à Berat

    Ce jour, 18 Juin, Mardi

    Heure Température Précipitation Vent Pression Humidité
    00:00 +21°C° 0 mm 2 m/s 743 mmHg 72%
    01:00 +21°C° 0 mm 2 m/s 743 mmHg 72%
    02:00 +21°C° 0.4 mm 2 m/s 743 mmHg 72%
    03:00 +21°C° 0.4 mm 2 m/s 743 mmHg 73%
    04:00 +21°C° 0.4 mm 1 m/s 743 mmHg 73%
    05:00 +23°C° 0.1 mm 1 m/s 743 mmHg 69%
    06:00 +25°C° 0.1 mm 1 m/s 744 mmHg 65%
    07:00 +26°C° 0.1 mm 1 m/s 744 mmHg 60%
    08:00 +28°C° 0 mm 1 m/s 744 mmHg 56%
    09:00 +29°C° 0 mm 1 m/s 744 mmHg 51%
    10:00 +31°C° 0 mm 1 m/s 744 mmHg 47%
    11:00 +31°C° 0 mm 2 m/s 744 mmHg 44%
    12:00 +32°C° 0 mm 2 m/s 744 mmHg 42%
    13:00 +33°C° 0 mm 3 m/s 743 mmHg 40%
    14:00 +33°C° 0 mm 3 m/s 743 mmHg 45%
    15:00 +31°C° 0 mm 3 m/s 743 mmHg 50%
    16:00 +30°C° 0 mm 3 m/s 743 mmHg 55%
    17:00 +28°C° 0.1 mm 2 m/s 743 mmHg 62%
    18:00 +26°C° 0.1 mm 1 m/s 743 mmHg 68%
    19:00 +23°C° 0.1 mm 0 m/s 743 mmHg 75%
    20:00 +22°C° 0 mm 0 m/s 743 mmHg 75%
    21:00 +23°C° 0 mm 1 m/s 743 mmHg 74%
    22:00 +23°C° 0 mm 1 m/s 743 mmHg 73%
    23:00 +22°C° 0 mm 1 m/s 743 mmHg 72%

    Demain, 19 Juin, Mercredi

    Heure Température Précipitation Vent Pression Humidité
    00:00 +22°C° 0 mm 1 m/s 743 mmHg 71%
    01:00 +22°C° 0 mm 1 m/s 743 mmHg 69%
    02:00 +21°C° 0 mm 1 m/s 743 mmHg 69%
    03:00 +21°C° 0 mm 1 m/s 742 mmHg 69%
    04:00 +21°C° 0 mm 1 m/s 742 mmHg 69%
    05:00 +22°C° 0 mm 1 m/s 742 mmHg 65%
    06:00 +22°C° 0 mm 0 m/s 743 mmHg 61%
    07:00 +24°C° 0 mm 0 m/s 743 mmHg 57%
    08:00 +27°C° 0 mm 1 m/s 743 mmHg 52%
    09:00 +29°C° 0 mm 1 m/s 743 mmHg 47%
    10:00 +30°C° 0 mm 2 m/s 743 mmHg 43%
    11:00 +30°C° 0 mm 2 m/s 743 mmHg 41%
    12:00 +31°C° 0 mm 3 m/s 742 mmHg 40%
    13:00 +33°C° 0 mm 3 m/s 742 mmHg 38%
    14:00 +31°C° 0 mm 3 m/s 742 mmHg 45%
    15:00 +30°C° 0 mm 4 m/s 742 mmHg 51%
    16:00 +29°C° 0 mm 4 m/s 741 mmHg 57%
    17:00 +28°C° 0 mm 3 m/s 741 mmHg 65%
    18:00 +26°C° 0 mm 2 m/s 741 mmHg 73%
    19:00 +24°C° 0 mm 1 m/s 741 mmHg 81%
    20:00 +24°C° 0 mm 1 m/s 742 mmHg 82%
    21:00 +23°C° 0 mm 1 m/s 742 mmHg 84%
    22:00 +20°C° 0 mm 0 m/s 742 mmHg 85%
    23:00 +20°C° 0 mm 0 m/s 742 mmHg 85%

    Après-demain, 20 Juin, Jeudi

    Heure Température Précipitation Vent Pression Humidité
    00:00 +20°C° 0 mm 0 m/s 742 mmHg 84%
    01:00 +19°C° 0 mm 0 m/s 742 mmHg 84%
    02:00 +19°C° 0 mm 0 m/s 742 mmHg 84%
    03:00 +19°C° 0 mm 0 m/s 742 mmHg 85%
    04:00 +20°C° 0 mm 1 m/s 742 mmHg 86%
    05:00 +20°C° 0 mm 0 m/s 742 mmHg 78%
    06:00 +22°C° 0 mm 0 m/s 742 mmHg 71%
    07:00 +24°C° 0 mm 0 m/s 742 mmHg 63%
    08:00 +27°C° 0 mm 1 m/s 742 mmHg 56%
    09:00 +28°C° 0 mm 1 m/s 742 mmHg 50%
    10:00 +29°C° 0 mm 2 m/s 742 mmHg 43%
    11:00 +30°C° 0 mm 3 m/s 742 mmHg 42%
    12:00 +31°C° 0 mm 3 m/s 742 mmHg 41%
    13:00 +31°C° 0 mm 3 m/s 742 mmHg 40%
    14:00 +31°C° 0 mm 3 m/s 742 mmHg 44%
    15:00 +30°C° 0 mm 3 m/s 742 mmHg 47%
    16:00 +29°C° 0 mm 3 m/s 742 mmHg 51%
    17:00 +28°C° 0 mm 2 m/s 742 mmHg 59%
    18:00 +26°C° 0 mm 1 m/s 742 mmHg 67%
    19:00 +22°C° 0 mm 0 m/s 742 mmHg 76%
    20:00 +23°C° 0 mm 1 m/s 742 mmHg 76%
    21:00 +23°C° 0 mm 1 m/s 742 mmHg 76%
    22:00 +22°C° 0 mm 1 m/s 743 mmHg 76%
    23:00 +22°C° 0 mm 1 m/s 743 mmHg 74%

    21 Juin, Vendredi

    Heure Température Précipitation Vent Pression Humidité
    00:00 +22°C° 0 mm 1 m/s 743 mmHg 72%
    01:00 +21°C° 0 mm 1 m/s 743 mmHg 70%
    02:00 +19°C° 0 mm 0 m/s 743 mmHg 71%
    03:00 +19°C° 0 mm 0 m/s 743 mmHg 72%
    04:00 +18°C° 0 mm 0 m/s 742 mmHg 73%
    05:00 +20°C° 0 mm 0 m/s 743 mmHg 69%
    06:00 +22°C° 0 mm 0 m/s 743 mmHg 64%
    07:00 +24°C° 0 mm 0 m/s 743 mmHg 60%
    08:00 +27°C° 0 mm 1 m/s 743 mmHg 57%
    09:00 +29°C° 0 mm 1 m/s 743 mmHg 53%
    10:00 +30°C° 0 mm 2 m/s 743 mmHg 50%
    11:00 +31°C° 0 mm 2 m/s 743 mmHg 49%
    12:00 +31°C° 0 mm 3 m/s 743 mmHg 48%
    13:00 +33°C° 0 mm 3 m/s 743 mmHg 47%
    14:00 +31°C° 0 mm 3 m/s 743 mmHg 49%
    15:00 +31°C° 0 mm 3 m/s 743 mmHg 52%
    16:00 +30°C° 0 mm 3 m/s 743 mmHg 55%
    17:00 +29°C° 0 mm 2 m/s 743 mmHg 62%
    18:00 +27°C° 0 mm 1 m/s 743 mmHg 68%
    19:00 +23°C° 0 mm 0 m/s 743 mmHg 75%
    20:00 +23°C° 0 mm 0 m/s 743 mmHg 77%
    21:00 +24°C° 0 mm 1 m/s 743 mmHg 78%
    22:00 +23°C° 0 mm 1 m/s 744 mmHg 80%
    23:00 +23°C° 0 mm 1 m/s 744 mmHg 79%

    22 Juin, Samedi

    Heure Température Précipitation Vent Pression Humidité
    00:00 +23°C° 0 mm 1 m/s 744 mmHg 78%
    01:00 +23°C° 0 mm 1 m/s 744 mmHg 77%
    02:00 +23°C° 0 mm 1 m/s 743 mmHg 76%
    03:00 +22°C° 0 mm 1 m/s 743 mmHg 76%
    04:00 +22°C° 0 mm 1 m/s 743 mmHg 75%
    05:00 +24°C° 0 mm 1 m/s 744 mmHg 69%
    06:00 +26°C° 0 mm 1 m/s 744 mmHg 63%
    07:00 +28°C° 0 mm 1 m/s 744 mmHg 58%
    08:00 +30°C° 0 mm 1 m/s 744 mmHg 52%
    09:00 +31°C° 0 mm 1 m/s 744 mmHg 47%
    10:00 +33°C° 0 mm 1 m/s 744 mmHg 42%
    11:00 +35°C° 0 mm 2 m/s 744 mmHg 40%
    12:00 +35°C° 0 mm 2 m/s 744 mmHg 38%
    13:00 +36°C° 0 mm 2 m/s 744 mmHg 36%
    14:00 +36°C° 0 mm 3 m/s 744 mmHg 38%
    15:00 +35°C° 0 mm 3 m/s 744 mmHg 40%
    16:00 +35°C° 0 mm 3 m/s 744 mmHg 42%
    17:00 +32°C° 0 mm 2 m/s 744 mmHg 50%
    18:00 +30°C° 0 mm 1 m/s 744 mmHg 58%
    19:00 +25°C° 0 mm 0 m/s 744 mmHg 67%
    20:00 +27°C° 0 mm 1 m/s 744 mmHg 66%
    21:00 +27°C° 0 mm 1 m/s 744 mmHg 65%
    22:00 +26°C° 0 mm 2 m/s 745 mmHg 64%
    23:00 +26°C° 0 mm 1 m/s 745 mmHg 61%

    23 Juin, Dimanche

    Heure Température Précipitation Vent Pression Humidité
    00:00 +26°C° 0 mm 1 m/s 744 mmHg 59%
    01:00 +25°C° 0 mm 1 m/s 744 mmHg 57%
    02:00 +25°C° 0 mm 1 m/s 744 mmHg 55%
    03:00 +25°C° 0 mm 1 m/s 744 mmHg 54%
    04:00 +25°C° 0 mm 1 m/s 744 mmHg 53%
    05:00 +27°C° 0 mm 1 m/s 745 mmHg 51%
    06:00 +29°C° 0 mm 1 m/s 745 mmHg 48%
    07:00 +30°C° 0 mm 1 m/s 745 mmHg 46%
    08:00 +32°C° 0 mm 2 m/s 745 mmHg 42%
    09:00 +34°C° 0 mm 2 m/s 746 mmHg 38%
    10:00 +36°C° 0 mm 2 m/s 746 mmHg 34%
    11:00 +36°C° 0 mm 3 m/s 746 mmHg 34%
    12:00 +36°C° 0 mm 3 m/s 745 mmHg 35%
    13:00 +37°C° 0 mm 4 m/s 745 mmHg 35%
    14:00 +36°C° 0 mm 3 m/s 745 mmHg 37%
    15:00 +36°C° 0 mm 3 m/s 745 mmHg 38%
    16:00 +35°C° 0 mm 2 m/s 745 mmHg 40%
    17:00 +32°C° 0 mm 2 m/s 745 mmHg 48%
    18:00 +29°C° 0 mm 1 m/s 745 mmHg 56%
    19:00 +27°C° 0 mm 1 m/s 745 mmHg 64%
    20:00 +27°C° 0 mm 1 m/s 745 mmHg 63%
    21:00 +26°C° 0 mm 1 m/s 745 mmHg 62%
    22:00 +26°C° 0 mm 1 m/s 746 mmHg 60%
    23:00 +25°C° 0 mm 1 m/s 746 mmHg 59%
    Voir plus